Weather History for Saginaw Browne, MI

Change the Weather History Date:

Friday, August 23, 2013

  Actual Average (KMBS) Record (KMBS)
Temperature  
Mean Temperature 65 °F 68 °F  
Max Temperature 77 °F 79 °F 89 °F (1998)
Min Temperature 53 °F 58 °F 48 °F (1997)
Degree Days  
Heating Degree Days 0    
Month to date heating degree days  
Since 1 June heating degree days  
Since 1 July heating degree days  
Cooling Degree Days 0    
Month to date cooling degree days  
Year to date cooling degree days  
Since 1 June cooling degree days  
Growing Degree Days 15 (Base 50)    
Moisture  
Dew Point 55 °F    
Average Humidity 72    
Maximum Humidity 94    
Minimum Humidity 44    
Precipitation  
Precipitation 0.00 in 0.11 in 0.75 in (2008)
Month to date precipitation 2.40  
Year to date precipitation 19.61  
Snow  
Snow 0.00 in - - ()
Month to date snowfall  
Since 1 June snowfall  
Since 1 July snowfall  
Snow Depth -    
Sea Level Pressure  
Sea Level Pressure 30.15 in    
Wind  
Wind Speed 5 mph (North)    
Max Wind Speed 16 mph    
Max Gust Speed 20 mph    
Visibility 10 miles    
Events      
T = Trace of Precipitation, MM = Missing Value Source: NWS Daily Summary

Daily Weather History Graph

Daily Weather History Graph

Search for Another Location

Airport:

Trip Planner

Search our weather history database for the weather conditions in past years. The results will help you decide how hot, cold, wet, or windy it might be!

Date:

Astronomy

Aug. 23, 2013 Rise Set
Actual Time 6:49 AM EDT 8:25 PM EDT
Civil Twilight 6:19 AM EDT 8:55 PM EDT
Nautical Twilight 5:42 AM EDT 9:31 PM EDT
Astronomical Twilight 5:03 AM EDT 10:10 PM EDT
Moon 9:35 PM EDT (8/23) 9:50 AM EDT (8/23)
Length of Visible Light 14h 36m
Length of Day
13h 35m
Waning Gibbous, 91% of the Moon is Illuminated
Aug 23
Waning Gibbous
Aug 28
Last Quarter
Sep 5
New
Sep 12
First Quarter
Sep 19
Full

Hourly Weather History & Observations

Time (EDT) Temp. Dew Point Humidity Pressure Visibility Wind Dir Wind Speed Gust Speed Precip Events Conditions
12:14 AM 60.8 °F 57.2 °F 88% 30.09 in 10.0 mi Calm Calm - N/A   Clear
12:35 AM 60.8 °F 59.0 °F 94% 30.09 in 10.0 mi Calm Calm - N/A   Clear
12:55 AM 60.8 °F 57.2 °F 88% 30.10 in 10.0 mi North 3.5 mph - N/A   Clear
1:14 AM 60.8 °F 57.2 °F 88% 30.10 in 10.0 mi North 3.5 mph - N/A   Clear
1:35 AM 60.8 °F 57.2 °F 88% 30.10 in 10.0 mi Calm Calm - N/A   Clear
1:55 AM 59.0 °F 55.4 °F 88% 30.11 in 10.0 mi Calm Calm - N/A   Clear
2:14 AM 59.0 °F 55.4 °F 88% 30.11 in 10.0 mi Calm Calm - N/A   Clear
2:35 AM 60.8 °F 53.6 °F 77% 30.11 in 10.0 mi Calm Calm - N/A   Clear
2:55 AM 59.0 °F 50.0 °F 72% 30.10 in 10.0 mi North 3.5 mph - N/A   Clear
3:14 AM 59.0 °F 50.0 °F 72% 30.10 in 10.0 mi North 3.5 mph - N/A   Clear
3:35 AM 57.2 °F 50.0 °F 77% 30.10 in 10.0 mi Calm Calm - N/A   Clear
3:54 AM 59.0 °F 50.0 °F 72% 30.10 in 10.0 mi NNW 3.5 mph - N/A   Clear
4:14 AM 57.2 °F 51.8 °F 82% 30.10 in 10.0 mi NW 4.6 mph - N/A   Clear
4:35 AM 55.4 °F 51.8 °F 88% 30.11 in 10.0 mi NW 4.6 mph - N/A   Clear
4:54 AM 55.4 °F 51.8 °F 88% 30.11 in 10.0 mi NW 3.5 mph - N/A   Clear
5:15 AM 55.4 °F 51.8 °F 88% 30.11 in 10.0 mi WNW 3.5 mph - N/A   Clear
5:35 AM 53.6 °F 51.8 °F 94% 30.11 in 10.0 mi WNW 3.5 mph - N/A   Clear
5:54 AM 53.6 °F 51.8 °F 94% 30.11 in 10.0 mi NW 3.5 mph - N/A   Clear
6:15 AM 53.6 °F 50.0 °F 88% 30.12 in 10.0 mi NW 3.5 mph - N/A   Clear
6:35 AM 53.6 °F 50.0 °F 88% 30.13 in 10.0 mi NW 3.5 mph - N/A   Clear
6:54 AM 53.6 °F 48.2 °F 82% 30.13 in 10.0 mi NW 5.8 mph - N/A   Clear
7:15 AM 53.6 °F 48.2 °F 82% 30.14 in 10.0 mi NW 6.9 mph - N/A   Clear
7:35 AM 53.6 °F 50.0 °F 88% 30.15 in 10.0 mi NW 5.8 mph - N/A   Clear
7:54 AM 55.4 °F 51.8 °F 88% 30.15 in 10.0 mi NW 4.6 mph - N/A   Clear
8:15 AM 59.0 °F 51.8 °F 77% 30.16 in 10.0 mi WNW 3.5 mph - N/A   Clear
8:35 AM 60.8 °F 53.6 °F 77% 30.16 in 10.0 mi NW 5.8 mph - N/A   Clear
8:54 AM 60.8 °F 55.4 °F 82% 30.16 in 10.0 mi NNW 4.6 mph - N/A   Clear
9:15 AM 62.6 °F 55.4 °F 77% 30.16 in 10.0 mi NW 5.8 mph - N/A   Clear
9:35 AM 64.4 °F 57.2 °F 77% 30.17 in 10.0 mi NNW 5.8 mph - N/A   Clear
9:54 AM 66.2 °F 59.0 °F 78% 30.17 in 10.0 mi North 4.6 mph - N/A   Clear
10:15 AM 68.0 °F 60.8 °F 78% 30.17 in 10.0 mi North 8.1 mph - N/A   Scattered Clouds
10:35 AM 68.0 °F 62.6 °F 83% 30.17 in 10.0 mi North 8.1 mph - N/A   Scattered Clouds
10:54 AM 71.6 °F 62.6 °F 73% 30.17 in 10.0 mi North 8.1 mph - N/A   Scattered Clouds
11:15 AM 71.6 °F 62.6 °F 73% 30.17 in 10.0 mi North 6.9 mph - N/A   Scattered Clouds
11:35 AM 71.6 °F 60.8 °F 69% 30.18 in 10.0 mi North 8.1 mph - N/A   Scattered Clouds
11:54 AM 71.6 °F 59.0 °F 64% 30.18 in 10.0 mi North 6.9 mph - N/A   Scattered Clouds
12:15 PM 73.4 °F 60.8 °F 65% 30.18 in 10.0 mi North 11.5 mph - N/A   Scattered Clouds
12:35 PM 73.4 °F 60.8 °F 65% 30.18 in 10.0 mi North 10.4 mph - N/A   Scattered Clouds
12:54 PM 73.4 °F 60.8 °F 65% 30.18 in 10.0 mi NNE 11.5 mph 16.1 mph N/A   Scattered Clouds
1:15 PM 73.4 °F 60.8 °F 65% 30.17 in 10.0 mi NNE 11.5 mph - N/A   Scattered Clouds
1:35 PM 75.2 °F 59.0 °F 57% 30.17 in 10.0 mi NNE 10.4 mph 17.3 mph N/A   Scattered Clouds
1:54 PM 73.4 °F 59.0 °F 61% 30.17 in 10.0 mi North 13.8 mph 17.3 mph N/A   Clear
2:15 PM 75.2 °F 59.0 °F 57% 30.17 in 10.0 mi NNE 13.8 mph 19.6 mph N/A   Clear
2:35 PM 75.2 °F 57.2 °F 53% 30.17 in 10.0 mi NNE 13.8 mph 18.4 mph N/A   Clear
2:54 PM 75.2 °F 55.4 °F 50% 30.17 in 10.0 mi North 16.1 mph - N/A   Clear
3:15 PM 75.2 °F 55.4 °F 50% 30.17 in 10.0 mi North 13.8 mph 19.6 mph N/A   Clear
3:34 PM 75.2 °F 55.4 °F 50% 30.17 in 10.0 mi NNE 15.0 mph 19.6 mph N/A   Clear
3:54 PM 75.2 °F 55.4 °F 50% 30.16 in 10.0 mi NNE 11.5 mph - N/A   Clear
4:15 PM 77.0 °F 55.4 °F 47% 30.16 in 10.0 mi North 13.8 mph - N/A   Clear
4:35 PM 75.2 °F 53.6 °F 47% 30.16 in 10.0 mi NNE 12.7 mph - N/A   Clear
4:55 PM 75.2 °F 53.6 °F 47% 30.16 in 10.0 mi NNE 11.5 mph - N/A   Clear
5:15 PM 75.2 °F 53.6 °F 47% 30.16 in 10.0 mi NNE 11.5 mph 16.1 mph N/A   Clear
5:34 PM 75.2 °F 51.8 °F 44% 30.16 in 10.0 mi NNE 11.5 mph 16.1 mph N/A   Clear
5:54 PM 73.4 °F 53.6 °F 50% 30.16 in 10.0 mi NNE 10.4 mph 16.1 mph N/A   Clear
6:15 PM 73.4 °F 53.6 °F 50% 30.16 in 10.0 mi NNE 11.5 mph - N/A   Clear
6:34 PM 73.4 °F 55.4 °F 53% 30.17 in 10.0 mi NNE 9.2 mph - N/A   Clear
6:55 PM 71.6 °F 55.4 °F 57% 30.16 in 10.0 mi NNE 8.1 mph - N/A   Clear
7:15 PM 71.6 °F 51.8 °F 50% 30.16 in 10.0 mi NE 6.9 mph - N/A   Clear
7:34 PM 71.6 °F 51.8 °F 50% 30.16 in 10.0 mi ENE 6.9 mph - N/A   Clear
7:55 PM 69.8 °F 53.6 °F 56% 30.17 in 10.0 mi NE 6.9 mph - N/A   Clear
8:15 PM 66.2 °F 53.6 °F 64% 30.17 in 10.0 mi NE 4.6 mph - N/A   Clear
8:34 PM 64.4 °F 53.6 °F 68% 30.17 in 10.0 mi NE 4.6 mph - N/A   Clear
8:55 PM 62.6 °F 53.6 °F 72% 30.18 in 10.0 mi NE 4.6 mph - N/A   Clear
9:15 PM 60.8 °F 53.6 °F 77% 30.19 in 10.0 mi NE 3.5 mph - N/A   Clear
9:34 PM 60.8 °F 53.6 °F 77% 30.19 in 10.0 mi East 3.5 mph - N/A   Clear
9:55 PM 59.0 °F 53.6 °F 82% 30.19 in 10.0 mi ENE 4.6 mph - N/A   Clear
10:15 PM 59.0 °F 53.6 °F 82% 30.20 in 10.0 mi ENE 4.6 mph - N/A   Clear
10:34 PM 59.0 °F 53.6 °F 82% 30.21 in 10.0 mi Calm Calm - N/A   Clear
10:55 PM 59.0 °F 53.6 °F 82% 30.21 in 10.0 mi Calm Calm - N/A   Clear
11:15 PM 59.0 °F 53.6 °F 82% 30.22 in 10.0 mi Calm Calm - N/A   Clear
11:34 PM 59.0 °F 53.6 °F 82% 30.22 in 10.0 mi Calm Calm - N/A   Clear
11:55 PM 57.2 °F 53.6 °F 88% 30.22 in 10.0 mi Calm Calm - N/A   Clear